Tracking 32963 objects as of 22-Jan-2026
HD Live streaming from Space Station
objects crossing your sky now

IRIDIUM 33 DEB

Track IRIDIUM 33 DEB now!
10-day predictions


NORAD ID: 34690
Int'l Code: 1997-051KM
Perigee: 709.8 km
Apogee: 721.5 km
Inclination: 86.4 °
Period: 99.0 minutes
Semi major axis: 7086 km
RCS: 0.0122 m2 (small)
Launch date: September 14, 1997
Source: United States (US)
Launch site: TYURATAM MISSILE AND SPACE COMPLEX (TTMTR)

Note: This is SATELLITE DEBRIS
Your satellite tracking list
Your tracking list is empty




NASA's NSSDC Master Catalog

Two Line Element Set (TLE):
1 34690U 97051KM  26021.47285006  .00003835  00000-0  88069-3 0  9990
2 34690  86.3778  19.7150 0008269 237.2471 276.3345 14.55273930886727
Source of the keplerian elements: AFSPC